Regional Weather Roundup
Issued by NWS

Home | Current Version | Previous Version | Text Only | Print | Product List | Glossary Off
Versions: 1 2 3 4 5 6 7 8 9 10 11 12 13 14 15 16 17 18 19 20 21 22 23 24 25 26 27 28 29 30 31 32 33 34 35 36 37 38 39 40 41 42 43 44 45 46 47 48 49 50

000
ASUS43 KIND 121509
RWRIN

WEATHER ROUNDUP FOR INDIANA
NATIONAL WEATHER SERVICE INDIANAPOLIS IN
1000 AM EST TUE DEC 12 2017

NOTE: "FAIR" INDICATES FEW OR NO CLOUDS BELOW 12,000 FEET WITH NO
SIGNIFICANT WEATHER AND/OR OBSTRUCTIONS TO VISIBILITY.

* - STATION DOES NOT REPORT WEATHER SUCH AS PRECIPITATION OR FOG.

+ - STATION NOT QUALITY CONTROLLED BY THE NATIONAL WEATHER SERVICE.
    USE DATA WITH CAUTION...ESPECIALLY DEWPOINT AND RELATIVE
    HUMIDITY OBSERVATIONS.

INZ001>003-010>013-019-020-121600-
NORTHWEST INDIANA

CITY           SKY/WX    TMP DP  RH WIND       PRES   REMARKS
GARY /AIRPORT/ PTSUNNY   21   7  53 W17G35    30.08R WCI   7
KNOX *+        CLOUDY    21  16  79 W15G21    30.01R WCI   8
LA PORTE +     SNOW      21  19  89 N12       30.00R VSB 1/2 WCI   9
MICHIGAN CITY+ SNOW      23  19  86 N9G25     30.02R VSB 1/2 WCI  13
MONTICELLO +   SUNNY     22   8  54 NW21G26   30.04R WCI   6
VALPARAISO     LGT SNOW  21  14  74 NW16G25   30.03R WCI   7

$$

LMZ046-743>745-121600-
SOUTHERN LAKE MICHIGAN

STATION/POSITION TIME  TEMP    WIND        PRES    WAVE
                       AIR SEA DIR/SP/G            HT
                 (UTC) (F)     (DEG/KT/KT) (MB)    (FT)
BURNS HARBOR     1431   24     320/ 16/ 26 1016.9R
MICHIGAN CITY    1440   24     310/ 29/ 35   N/A

$$

INZ004-005-014>016-021>024-121600-
NORTH CENTRAL INDIANA

CITY           SKY/WX    TMP DP  RH WIND       PRES   REMARKS
ELKHART        MOSUNNY   21  16  79 NW9       29.97R WCI  11
GOSHEN         MOSUNNY   21  14  74 NW14      29.96R WCI   8
LOGANSPORT +   MOSUNNY   23  12  63 W13       30.03R WCI  11
ROCHESTER +    PTSUNNY   27  19  74 NW14      29.99R WCI  15
SOUTH BEND     PTSUNNY   21  15  78 NW8       29.98R WCI  11
WARSAW +       MOSUNNY   23  14  68 NW15      29.96S WCI  10

$$

INZ006>009-017-018-025>027-121600-
NORTHEAST INDIANA

CITY           SKY/WX    TMP DP  RH WIND       PRES   REMARKS
AUBURN +       PTSUNNY   23  10  58 NW12G17   29.94S WCI  12
FORT WAYNE     LGT SNOW  22  17  81 NW12      29.96R WCI  10
HUNTINGTON +   FLURRIES  23  16  73 NW15G23   29.96R WCI  10
KENDALLVILLE + CLOUDY    20  13  74 N9        29.93S WCI   9

$$

INZ028-029-035-036-043>045-051>053-121600-
WEST CENTRAL INDIANA

CITY           SKY/WX    TMP DP  RH WIND       PRES   REMARKS
LAFAYETTE      SUNNY     21  10  62 NW15G29   30.07R WCI   8
TERRE HAUTE    SUNNY     24  11  57 NW20G28   30.11R WCI  10

$$

INZ030>032-037>040-046>048-054>057-064-065-121600-
CENTRAL INDIANA

CITY           SKY/WX    TMP DP  RH WIND       PRES   REMARKS
COLUMBUS       SUNNY     27  10  50 NW18G25   30.03R WCI  13
FRANKFORT +    SUNNY     26  15  64 NW18      30.04R WCI  12
GREENWOOD *+   SUNNY     28  16  60 NW14G22   30.02S WCI  17
INDIANAPOLIS   MOSUNNY   25  13  60 NW16G29   30.03R WCI  12
-EAGLE CREEK   SUNNY     24  13  62 NW21G30   30.02R WCI   9
KOKOMO +       FLURRIES  21  14  73 NW17      30.01R WCI   7
MARION +       LGT SNOW  24  18  77 NW15G26   29.98R WCI  11
MT COMFORT *+  MOSUNNY   23  18  80 NW15G24   30.01R WCI  10
SHELBYVILLE    SUNNY     27  14  58 NW16G24   30.00R WCI  15
ZIONSVILLE +   SUNNY     22  14  70 NW15G24   30.02R WCI   9

$$

INZ033-034-041-042-049-050-058-059-121600-
EAST CENTRAL INDIANA

CITY           SKY/WX    TMP DP  RH WIND       PRES   REMARKS
MUNCIE         LGT SNOW  26  17  68 NW15      29.96R WCI  14
RICHMOND +     LGT SNOW  23  19  86 N17G28    29.94R WCI   9

$$

INZ060-061-067>069-081>083-085>088-121600-
SOUTHWEST INDIANA

CITY           SKY/WX    TMP DP  RH WIND       PRES   REMARKS
EVANSVILLE     PTSUNNY   32  21  64 NW15G26   30.13R WCI  22
HUNTINGBURG +  MOSUNNY   30  19  63 NW23G29   30.09R WCI  17
WASHINGTON +   SUNNY     28  13  53 NW21      30.12R WCI  14

$$

INZ062-063-066-070>080-084-089>092-121600-
SOUTH CENTRAL AND SOUTHEAST INDIANA

CITY           SKY/WX    TMP DP  RH WIND       PRES   REMARKS
BEDFORD +      SUNNY     28  12  50 NW14G22   30.04R WCI  17
BLOOMINGTON    PTSUNNY   26  12  55 NW12G18   30.05R WCI  16
MADISON *+     PTSUNNY   30  18  59 NW16G22   30.01R WCI  19
NORTH VERNON + PTSUNNY   27  12  54 NW17G25   30.01R WCI  14
SEYMOUR +      PTSUNNY   30  14  51 NW20G25   30.03R WCI  18

$$





USA.gov is the U.S. government's official web portal to all federal, state and local government web resources and services.